CW7625 Weather Reports


Display with metric or nautical units.
time (UTC)temp
F
wind
direction
speed
MPH
gust
MPH
rain 1hr
in
rain 24hr
in
rain mn
in
humidity
%
barometer
mb
20200226203003 43 297 1.0 14.0 0.00 0.00 0.00 50 1026.1
20200226202003 42 289 8.0 13.0 0.00 0.00 0.00 50 1026.2
20200226201003 43 310 3.0 14.0 0.00 0.00 0.00 50 1026.0
20200226200003 42 340 8.0 11.0 0.00 0.00 0.00 55 1026.0
20200226195003 42 360 3.0 18.0 0.00 0.00 0.00 55 1026.1
20200226194004 41 281 3.0 12.0 0.00 0.00 0.00 55 1026.2
20200226193004 41 348 4.0 15.0 0.00 0.00 0.00 58 1026.1
20200226192003 41 360 8.0 15.0 0.00 0.00 0.00 60 1026.2
20200226191003 41 288 10.0 13.0 0.00 0.00 0.00 60 1026.1
20200226190004 41 360 6.0 18.0 0.00 0.00 0.00 57 1026.3
20200226185003 42 285 6.0 17.0 0.00 0.00 0.00 57 1026.2
20200226184004 42 277 8.0 16.0 0.00 0.00 0.00 60 1026.2
20200226183004 41 273 7.0 17.0 0.00 0.00 0.00 61 1026.4
20200226182004 41 308 1.0 17.0 0.00 0.00 0.00 61 1026.4
20200226181003 42 360 5.0 11.0 0.00 0.00 0.00 60 1026.5
20200226180004 42 360 0.0 12.0 0.00 0.00 0.00 60 1026.3
20200226175004 42 360 4.0 18.0 0.00 0.00 0.00 61 1026.3
20200226174003 41 360 2.0 13.0 0.00 0.00 0.00 62 1026.2
20200226173004 41 318 0.0 13.0 0.00 0.00 0.00 63 1026.0
20200226172004 40 333 0.0 19.0 0.00 0.00 0.00 64 1026.1
20200226171003 40 290 11.0 17.0 0.00 0.00 0.00 64 1026.0
20200226170004 42 360 4.0 19.0 0.00 0.00 0.00 66 1025.9
20200226165003 40 360 12.0 16.0 0.00 0.00 0.00 68 1025.7
20200226164003 40 304 2.0 17.0 0.00 0.00 0.00 69 1025.8
20200226163003 40 317 0.0 17.0 0.00 0.00 0.00 69 1025.8
20200226162005 39 283 4.0 15.0 0.00 0.00 0.00 71 1025.8
20200226161003 39 296 9.0 14.0 0.00 0.00 0.00 75 1025.6
20200226160004 39 269 1.0 13.0 0.00 0.00 0.00 76 1025.3
20200226155004 39 309 0.0 13.0 0.00 0.00 0.00 77 1025.3
20200226154004 39 296 7.0 12.0 0.00 0.00 0.00 77 1025.0
20200226153003 39 290 0.0 12.0 0.00 0.00 0.00 76 1024.9
20200226152003 39 295 10.0 11.0 0.00 0.00 0.00 74 1024.7
20200226151003 39 23 0.0 14.0 0.00 0.00 0.00 74 1024.5
20200226150004 39 262 0.0 17.0 0.00 0.00 0.00 76 1024.4
20200226145004 39 279 8.0 12.0 0.00 0.00 0.00 77 1024.0
20200226144004 39 309 4.0 15.0 0.00 0.00 0.00 77 1023.8
20200226143004 39 283 1.0 15.0 0.00 0.00 0.00 77 1023.6
20200226142004 39 304 7.0 20.0 0.00 0.00 0.00 79 1023.4
20200226141003 40 291 8.0 21.0 0.00 0.00 0.00 81 1023.2
20200226140004 40 306 7.0 13.0 0.00 0.00 0.00 81 1022.9
20200226135004 40 360 8.0 13.0 0.00 0.00 0.00 80 1022.8
20200226134003 40 360 5.0 11.0 0.00 0.00 0.00 80 1022.5
20200226133003 40 360 6.0 15.0 0.00 0.00 0.00 80 1022.3
20200226132004 41 360 2.0 12.0 0.00 0.00 0.00 79 1022.1
20200226131003 40 17 0.0 10.0 0.00 0.00 0.00 79 1021.8
20200226130003 40 360 4.0 9.0 0.00 0.00 0.00 80 1021.5
20200226125004 40 271 4.0 10.0 0.00 0.00 0.00 81 1021.2
20200226124003 40 290 10.0 12.0 0.00 0.00 0.00 82 1020.8
20200226123005 40 293 10.0 11.0 0.00 0.00 0.00 84 1020.7
20200226122004 40 294 4.0 12.0 0.00 0.00 0.00 85 1020.5
20200226121004 39 276 3.0 12.0 0.00 0.00 0.00 86 1020.3
20200226120003 39 336 3.0 10.0 0.00 0.00 0.00 87 1020.0
20200226115003 39 298 3.0 9.0 0.00 0.00 0.00 87 1019.9
20200226114004 39 274 3.0 10.0 0.00 0.00 0.00 87 1019.9
20200226113003 39 288 2.0 11.0 0.00 0.00 0.00 86 1019.7
20200226112004 39 317 3.0 11.0 0.00 0.00 0.00 84 1019.4
20200226111004 39 281 4.0 8.0 0.00 0.00 0.00 84 1019.4
20200226110004 38 294 0.0 10.0 0.00 0.00 0.00 84 1019.2
20200226105003 38 271 3.0 7.0 0.00 0.00 0.00 84 1019.0
20200226104003 38 310 7.0 7.0 0.00 0.00 0.00 83 1019.0
20200226103003 38 263 0.0 7.0 0.00 0.00 0.00 83 1018.8
20200226102003 38 288 0.0 8.0 0.00 0.00 0.00 82 1018.8
20200226101021 39 279 0.0 4.0 0.00 0.00 0.00 82 1018.7
20200226100003 39 274 0.0 7.0 0.00 0.00 0.00 81 1018.7
20200226095003 39 278 2.0 6.0 0.00 0.00 0.00 81 1018.6
20200226094003 39 276 2.0 11.0 0.00 0.00 0.00 80 1018.4
20200226093003 39 271 9.0 10.0 0.00 0.00 0.00 79 1018.4
20200226092004 39 279 0.0 7.0 0.00 0.00 0.00 79 1018.3
20200226091004 39 272 0.0 7.0 0.00 0.00 0.00 78 1018.2
20200226090004 40 284 0.0 6.0 0.00 0.00 0.00 78 1018.4
20200226085004 40 250 3.0 9.0 0.00 0.00 0.00 77 1018.3
20200226084004 40 293 0.0 4.0 0.00 0.00 0.00 77 1018.3
20200226083004 40 270 0.0 8.0 0.00 0.00 0.00 76 1018.3
20200226082004 41 267 0.0 11.0 0.00 0.00 0.00 76 1018.2
20200226081004 41 261 4.0 9.0 0.00 0.00 0.00 76 1018.3
20200226080004 41 276 0.0 4.0 0.00 0.00 0.00 76 1018.1
20200226075003 41 257 0.0 4.0 0.00 0.00 0.00 76 1018.0
20200226074003 41 300 0.0 0.0 0.00 0.00 0.00 76 1017.8
20200226073004 41 299 0.0 0.0 0.00 0.00 0.00 77 1017.7
20200226072004 41 299 0.0 1.0 0.00 0.00 0.00 76 1017.7
20200226071004 42 299 0.0 3.0 0.00 0.00 0.00 75 1017.7
20200226070004 42 297 0.0 0.0 0.00 0.00 0.00 75 1017.8
20200226065004 42 297 0.0 0.0 0.00 0.00 0.00 75 1017.9
20200226064004 43 297 0.0 1.0 0.00 0.00 0.00 73 1017.8
20200226063004 43 297 1.0 5.0 0.00 0.00 0.00 72 1017.8
20200226062003 44 296 0.0 3.0 0.00 0.00 0.00 71 1017.7
20200226061003 44 278 0.0 3.0 0.00 0.00 0.00 71 1017.8
20200226060004 45 297 0.0 7.0 0.00 0.00 0.00 70 1017.6
20200226055003 45 287 0.0 5.0 0.00 0.00 0.00 69 1017.6
20200226054003 45 290 0.0 5.0 0.00 0.00 0.00 69 1017.5
20200226053004 46 275 1.0 5.0 0.00 0.00 0.00 69 1017.2
20200226052003 46 298 0.0 5.0 0.00 0.00 0.00 69 1017.2
20200226051003 46 277 0.0 4.0 0.00 0.00 0.00 68 1017.2
20200226050003 47 302 3.0 5.0 0.00 0.00 0.00 67 1017.2
20200226045004 47 295 3.0 5.0 0.00 0.00 0.00 67 1016.8
20200226044003 47 297 0.0 3.0 0.00 0.00 0.00 66 1016.9
20200226043005 47 300 0.0 5.0 0.00 0.00 0.00 66 1016.9
20200226042005 47 295 0.0 7.0 0.00 0.00 0.00 67 1016.5
20200226041004 48 324 3.0 8.0 0.00 0.00 0.00 66 1016.4
20200226040004 48 320 2.0 9.0 0.00 0.00 0.00 67 1016.9
20200226035004 48 276 0.0 11.0 0.00 0.00 0.00 66 1017.0
20200226034004 49 295 0.0 14.0 0.00 0.00 0.00 67 1016.8
20200226033003 49 341 5.0 12.0 0.00 0.00 0.00 69 1016.5
20200226032004 49 284 2.0 13.0 0.00 0.00 0.00 72 1016.2
20200226031004 47 324 11.0 11.0 0.00 0.00 0.00 80 1016.0
20200226030003 45 290 0.0 0.0 0.00 0.00 0.00 88 1015.5
20200226025005 45 290 0.0 0.0 0.00 0.00 0.00 87 1015.5
20200226024004 45 290 0.0 0.0 0.00 0.00 0.00 86 1015.3
20200226023004 46 290 0.0 0.0 0.00 0.00 0.00 86 1015.2
20200226022004 46 290 0.0 0.0 0.00 0.00 0.00 85 1015.0
20200226021003 46 290 0.0 0.0 0.00 0.00 0.00 85 1014.8
20200226020004 46 290 0.0 0.0 0.00 0.00 0.00 84 1014.7
20200226015004 47 290 0.0 0.0 0.00 0.00 0.00 82 1014.5
20200226014003 47 290 0.0 0.0 0.00 0.00 0.00 81 1014.5
20200226013003 48 290 0.0 0.0 0.00 0.00 0.00 80 1014.4
20200226012004 49 290 0.0 0.0 0.00 0.00 0.00 79 1014.3
20200226011003 50 290 0.0 1.0 0.00 0.00 0.00 76 1014.1
20200226010004 51 290 0.0 0.0 0.00 0.00 0.00 72 1014.0
20200226005003 52 290 0.0 4.0 0.00 0.00 0.00 71 1013.8
20200226004003 52 289 0.0 1.0 0.00 0.00 0.00 66 1013.7
20200226003004 53 289 0.0 0.0 0.00 0.00 0.00 65 1013.6
20200226002004 53 289 0.0 3.0 0.00 0.00 0.00 64 1013.5
20200226001003 53 289 1.0 8.0 0.00 0.00 0.00 63 1013.4
20200226000005 54 294 2.0 10.0 0.00 0.00 0.00 61 1013.4
20200225235003 54 302 7.0 13.0 0.00 0.00 0.00 61 1013.2
20200225234003 54 286 3.0 13.0 0.00 0.00 0.00 62 1013.0
20200225233003 55 298 8.0 10.0 0.00 0.00 0.00 60 1012.8
20200225232003 55 311 4.0 13.0 0.00 0.00 0.00 60 1012.7
20200225231004 55 315 6.0 14.0 0.00 0.00 0.00 58 1012.5
20200225230003 56 309 9.0 16.0 0.00 0.00 0.00 57 1012.3
20200225225003 56 302 7.0 14.0 0.00 0.00 0.00 57 1012.3
20200225224003 57 294 3.0 8.0 0.00 0.00 0.00 58 1012.1
20200225223004 57 292 2.0 11.0 0.00 0.00 0.00 57 1011.8
20200225222004 57 309 4.0 15.0 0.00 0.00 0.00 56 1011.7
20200225221004 58 288 8.0 12.0 0.00 0.00 0.00 55 1011.6
20200225220003 58 355 5.0 15.0 0.00 0.00 0.00 53 1011.4
20200225215004 58 255 5.0 10.0 0.00 0.00 0.00 53 1011.3
20200225214004 58 217 4.0 11.0 0.00 0.00 0.00 53 1011.3
20200225213004 58 238 3.0 7.0 0.00 0.00 0.00 55 1011.3
20200225212003 58 261 6.0 10.0 0.00 0.00 0.00 54 1011.1
20200225211004 58 279 3.0 13.0 0.00 0.00 0.00 53 1011.1
20200225210004 59 276 7.0 11.0 0.00 0.00 0.00 54 1011.0
20200225205003 59 223 5.0 10.0 0.00 0.00 0.00 54 1011.1
20200225204004 60 282 4.0 8.0 0.00 0.00 0.00 52 1011.3